Skip Page Navigation
NASA JPL Caltech
NASA Logo - Jet Propulsion Laboratory + View the NASA Portal
+ Near-Earth Object (NEO) Program
Search JPL
JPL Home Earth Solar System Stars & Galaxies Technology
JPL Solar System Dynamics
BODIES ORBITS EPHEMERIDES TOOLS PHYSICAL DATA DISCOVERY FAQ SITE MAP
JPL Small-Body Database Browser
Search: [ help ]  
7839 (1994 ND)
Classification: Amor [NEO]          SPK-ID: 2007839
Ephemeris | Orbit Diagram | Orbital Elements | Physical Parameters | Discovery Circumstances | Close-Approach Data ]

[ show orbit diagram ]
Orbital Elements at Epoch 2456800.5 (2014-May-23.0) TDB
Reference: JPL 30 (heliocentric ecliptic J2000)
 Element Value Uncertainty (1-sigma)   Units 
e .5174473381338506 8.7549e-08  
a 2.166104254129706 6.5945e-09 AU
q 1.04525937370988 1.8947e-07 AU
i 27.1747341999178 1.6131e-05 deg
node 102.6964782688629 1.5022e-05 deg
peri 228.0317292272681 2.7014e-05 deg
M 72.99231618118185 1.4551e-05 deg
tp 2456564.402111055841
(2013-Sep-28.90211106)
4.6058e-05 JED
period 1164.440922917444
3.19
5.3175e-06
1.456e-08
d
yr
n .3091612403126809 1.4118e-09 deg/d
Q 3.286949134549532 1.0007e-08 AU
  Orbit Determination Parameters
   # obs. used (total)      162  
   data-arc span      6918 days (18.94 yr)  
   first obs. used      1994-07-03  
   last obs. used      2013-06-11  
   planetary ephem.      DE431  
   SB-pert. ephem.      SB431-BIG16  
   condition code      0  
   fit RMS      .56711  
   data source      ORB  
   producer      Otto Matic  
   solution date      2014-Jun-09 19:05:48  

Additional Information
 Earth MOID = .137328 AU 
 T_jup = 3.385 
[ show covariance matrix ]

Ephemeris | Orbit Diagram | Orbital Elements | Physical Parameters | Discovery Circumstances | Close-Approach Data ]

Physical Parameter Table
Parameter Symbol Value Units Sigma Reference Notes
absolute magnitude H 17.8 mag n/a MPO263418  

7839 (1994 ND)          Discovered 1994-Jul-03 by McNaught, R. H. at Siding Spring (413)
Reference: DISCOVERY.DBLast Updated: 2003-08-29

[ show close-approach data ]
Ephemeris | Orbit Diagram | Orbital Elements | Physical Parameters | Discovery Circumstances | Close-Approach Data ]
ABOUT SSD CREDITS/AWARDS PRIVACY/COPYRIGHT GLOSSARY LINKS
FirstGov 2014-Jul-24 14:37 UT
(server date/time)  
NASA Home Page
Site Manager:   Donald K. Yeomans
Webmaster  Alan B. Chamberlin